This is the latest recevied weather packets stored in our database for station/object KG7BDA. If no packets are shown the sender has not sent any weather packets the latest 10 day(s).
| Time | Temp. | Humidity | Pressure | Rain* | Wind** | Luminosity | Snow |
|---|---|---|---|---|---|---|---|
| 1777761554 | 24.44° C | 14% | 1015 hPa | 0 mm | - | - | - |
| 1777761194 | 25° C | 14% | 1015.1 hPa | 0 mm | - | - | - |
| 1777760834 | 25° C | 13% | 1015.1 hPa | 0 mm | - | - | - |
| 1777760474 | 24.44° C | 16% | 1015.3 hPa | 0 mm | - | - | - |
| 1777760114 | 25° C | 17% | 1015.4 hPa | 0 mm | - | - | - |
| 1777759786 | 25° C | 17% | 1015.4 hPa | 0 mm | - | - | - |
| 1777759754 | 25° C | 17% | 1015.4 hPa | 0 mm | - | - | - |
| 1777759394 | 25° C | 15% | 1015.6 hPa | 0 mm | - | - | - |
| 1777759033 | 25° C | 16% | 1015.7 hPa | 0 mm | - | - | - |
| 1777758674 | 25° C | 19% | 1015.8 hPa | 0 mm | - | - | - |
| 1777758314 | 24.44° C | 16% | 1015.8 hPa | 0 mm | - | - | - |
| 1777757953 | 24.44° C | 15% | 1015.9 hPa | 0 mm | - | - | - |
| 1777757594 | 24.44° C | 16% | 1016 hPa | 0 mm | - | - | - |
| 1777757234 | 24.44° C | 17% | 1016 hPa | 0 mm | - | - | - |
| 1777756873 | 24.44° C | 18% | 1016.1 hPa | 0 mm | - | - | - |
| 1777756514 | 24.44° C | 17% | 1016.3 hPa | 0 mm | - | - | - |
| 1777756154 | 23.89° C | 20% | 1016.3 hPa | 0 mm | - | - | - |
| 1777755793 | 23.89° C | 19% | 1016.4 hPa | 0 mm | - | - | - |
| 1777755434 | 23.89° C | 20% | 1016.4 hPa | 0 mm | - | - | - |
| 1777755074 | 23.89° C | 17% | 1016.5 hPa | 0 mm | - | - | - |
| 1777754713 | 23.89° C | 17% | 1016.5 hPa | 0 mm | - | - | - |
| 1777754354 | 23.89° C | 18% | 1016.5 hPa | 0 mm | - | - | - |
| 1777753994 | 23.89° C | 17% | 1016.6 hPa | 0 mm | - | - | - |
| 1777753633 | 23.89° C | 20% | 1016.7 hPa | 0 mm | - | - | - |
| 1777753274 | 23.89° C | 20% | 1015.9 hPa | 0 mm | - | - | - |
* Rain latest hour (hover to see other rain measurements)
** Current wind speed in m/s (hover to see current wind gust speed)